This demonstration page uses our WeatherBlox Daily Observations layout. Learn more.

Left ArrowRight Arrow

Hourly Observations for December 2, 2020

Temp ( °F °C ) Dew Point ( °F °C ) Humidity (%) Winds ( mph kmh ) Pressure ( in mb ) Visibility ( mi km ) Precip ( " mm )
12:53 am 00:53 Cloudy 30 -1.1 22 -5.6 72 72 W 7 11 30.21 1023 10 16 0.00 0.00
1:21 am 01:21 Partly Cloudy 28 -2.2 22 -5.6 78 78 W 6 9 30.24 1024 10 16 0.00 0.00
1:53 am 01:53 Mostly Clear 26 -3.3 21 -6.1 81 81 WSW 3 6 30.23 1024 10 16 0.00 0.00
2:53 am 02:53 Clear 25 -3.9 21 -6.1 85 85 W 5 7 30.24 1024 10 16 0.00 0.00
3:53 am 03:53 Clear 25 -3.9 21 -6.1 85 85 W 6 9 30.26 1025 10 16 0.00 0.00
4:53 am 04:53 Clear 23 -5 20 -6.7 88 88 WSW 6 9 30.28 1026 10 16 0.00 0.00
5:53 am 05:53 Clear 23 -5 19 -7.2 85 85 W 5 7 30.29 1026 10 16 0.00 0.00
6:53 am 06:53 Clear 23 -5 20 -6.7 88 88 W 5 7 30.32 1027 10 16 0.00 0.00
7:53 am 07:53 Sunny 24 -4.4 20 -6.7 84 84 W 6 9 30.34 1027 10 16 0.00 0.00
8:53 am 08:53 Sunny 27 -2.8 22 -5.6 81 81 W 6 9 30.37 1029 10 16 0.00 0.00
9:53 am 09:53 Sunny 30 -1.1 24 -4.4 79 79 W 7 11 30.38 1029 10 16 0.00 0.00
10:53 am 10:53 Sunny 34 1.1 26 -3.3 73 73 VRB 5 7 30.41 1030 10 16 0.00 0.00
11:53 am 11:53 Sunny 38 3.3 29 -1.7 70 70 W 6 9 30.38 1029 10 16 0.00 0.00
12:53 pm 12:53 Sunny 40 4.4 30 -1.1 68 68 WSW 8 13 30.39 1029 10 16 0.00 0.00
1:53 pm 13:53 Sunny 43 6.1 30 -1.1 60 60 VRB 6 9 30.37 1029 10 16 0.00 0.00
2:53 pm 14:53 Sunny 43 6.1 28 -2.2 56 56 VRB 3 6 30.36 1028 10 16 0.00 0.00
3:53 pm 15:53 Sunny 43 6.1 28 -2.2 56 56 VRB 3 6 30.36 1028 10 16 0.00 0.00
4:53 pm 16:53 Sunny 40 4.4 25 -3.9 55 55 W 6 9 30.36 1028 10 16 0.00 0.00
5:53 pm 17:53 Clear 31 -0.6 24 -4.4 76 76 NW 3 6 30.37 1028 10 16 0.00 0.00
6:53 pm 18:53 Clear 28 -2.2 23 -5 81 81 Calm 30.37 1028 10 16 0.00 0.00
7:53 pm 19:53 Clear 26 -3.3 22 -5.6 84 84 Calm 30.37 1029 10 16 0.00 0.00
8:53 pm 20:53 Clear 24 -4.4 21 -6.1 88 88 Calm 30.38 1029 10 16 0.00 0.00
9:53 pm 21:53 Clear 24 -4.4 21 -6.1 88 88 Calm 30.38 1029 10 16 0.00 0.00
10:53 pm 22:53 Clear 22 -5.6 19 -7.2 89 89 Calm 30.38 1029 10 16 0.00 0.00
11:53 pm 23:53 Clear 22 -5.6 19 -7.2 89 89 Calm 30.36 1028 10 16 0.00 0.00

Powered by AerisWeather